Theta_e
317 318 320 321 320 321 322 322 321 319 312 309 311 314 316 317 319 321 321 321 323 323 326 329 329 329 328 326 329 329 331 332 335 331 333 333 333 332 331 327 327 327 328 327 330
319 319 317 320 320 320 321 322 322 321 317 309 310 312 315 318 318 320 321 321 324 328 329 328 324 324 323 323 325 328 329 332 332 330 331 333 333 329 326 327 327 327 328 328 329
317 317 316 319 320 319 320 322 322 322 320 309 310 311 315 316 317 319 321 321 323 329 329 326 322 322 322 324 332 331 331 330 332 333 333 332 331 330 327 327 327 328 329 328 329
305 306 308 315 320 319 319 320 322 322 322 311 310 310 314 315 319 321 321 320 321 326 328 322 322 322 322 323 331 331 330 332 333 333 333 331 331 328 329 329 329 327 328 328 328
303 304 306 313 319 319 319 318 320 321 322 316 309 310 312 315 319 321 321 321 321 323 327 322 323 322 323 329 330 330 330 332 334 333 333 332 331 330 329 330 329 329 329 328 328
302 303 304 306 317 318 318 318 318 318 320 321 309 309 311 314 320 321 322 321 322 324 327 326 325 322 322 326 328 330 330 332 332 332 332 331 329 330 327 329 329 329 328 328 328
302 303 303 304 307 317 318 318 318 318 318 321 309 309 310 315 320 321 322 323 324 322 322 322 323 323 325 329 330 331 330 328 329 330 330 332 329 327 327 328 328 328 328 328 328
302 302 303 304 305 308 315 316 316 317 318 321 309 309 311 313 315 319 319 323 325 325 323 328 328 326 327 331 329 329 326 331 328 328 329 330 331 326 327 328 327 327 327 327 326
302 302 303 304 304 306 307 311 316 315 319 314 309 309 311 314 317 319 319 322 321 324 325 329 329 328 329 327 326 324 328 329 330 327 326 328 329 325 327 327 327 327 327 326 326
302 302 302 303 304 305 308 312 318 318 319 310 309 315 313 317 319 320 320 320 325 325 327 327 327 323 322 326 328 327 329 328 329 328 327 327 327 322 325 327 326 326 326 326 326
301 302 302 303 305 308 309 318 318 319 317 314 311 313 315 316 318 321 327 323 329 328 327 326 325 326 324 324 327 327 327 329 326 326 328 327 327 323 322 325 325 325 326 326 327
301 302 302 302 312 316 319 317 318 318 317 316 316 315 313 315 316 319 326 328 328 327 326 325 326 326 326 325 324 325 328 328 320 327 328 327 328 324 322 323 324 325 325 326 327
300 301 302 302 316 323 321 321 319 315 316 314 316 317 314 315 316 317 321 326 327 328 327 326 327 324 324 325 321 319 321 319 320 327 327 324 324 321 322 323 324 324 325 326 327
300 300 301 308 320 325 324 322 323 316 314 315 320 318 316 315 315 316 319 323 324 326 326 325 324 323 324 324 320 320 318 319 318 325 328 322 321 317 317 318 324 324 325 326 326
299 300 301 301 314 324 322 324 319 322 304 313 319 317 316 315 314 314 317 323 322 323 322 324 320 321 323 323 321 321 318 319 318 318 316 317 315 315 315 321 320 323 325 326 326
299 299 300 301 301 317 323 321 318 311 309 318 315 312 313 313 314 318 316 321 322 321 319 319 319 318 319 320 321 319 320 318 316 314 315 316 314 314 314 319 318 320 324 326 326
299 299 299 300 301 303 316 321 310 309 314 319 314 312 312 312 312 315 317 318 319 320 320 318 319 318 319 320 318 319 319 319 318 317 317 317 315 314 316 316 316 315 316 318 322
298 298 299 299 300 300 311 317 308 313 317 319 317 312 311 311 311 313 315 316 316 316 316 319 320 317 317 319 319 318 318 319 321 319 320 319 317 316 314 314 315 315 316 318 319
298 298 299 300 303 301 319 317 314 317 321 320 316 313 312 312 312 313 313 314 314 315 316 317 318 316 315 317 318 319 319 318 319 318 319 318 316 316 314 314 314 314 316 316 316
297 298 299 305 308 312 314 312 318 318 320 320 316 314 312 311 311 310 310 313 315 315 315 316 318 315 315 316 316 317 317 318 314 318 321 319 316 316 315 314 314 313 313 314 315
297 303 308 310 308 311 300 309 317 318 317 320 320 319 314 316 315 312 312 312 313 315 315 315 315 315 315 315 315 316 318 318 316 315 317 317 316 312 315 314 313 313 313 314 315
300 300 314 314 308 309 306 312 313 313 314 315 319 319 315 318 317 316 313 313 314 315 315 314 314 314 315 315 314 314 316 318 315 318 316 314 315 312 311 314 314 313 312 312 312
300 304 313 312 304 305 307 309 311 312 310 312 317 315 316 318 319 317 316 315 314 312 313 314 313 313 315 314 313 316 315 314 314 314 318 317 317 313 313 314 314 312 312 312 312
302 299 308 312 310 309 310 310 310 310 308 310 311 311 315 318 317 318 317 316 314 314 315 315 313 314 316 316 313 314 314 313 314 312 315 316 316 314 313 312 313 313 313 313 313
303 300 302 297 303 305 308 310 310 311 311 312 312 311 314 316 318 317 316 315 314 313 314 313 314 314 314 316 314 314 313 314 314 315 316 316 315 313 313 312 313 313 312 313 313
302 301 301 301 302 304 306 309 309 309 310 312 310 311 313 317 317 318 315 315 316 313 311 310 312 314 316 317 315 316 314 314 315 315 316 315 315 312 313 313 312 312 312 312 312
300 301 301 300 301 302 303 303 306 307 308 309 310 311 313 315 314 314 314 314 314 315 313 311 313 312 314 315 316 315 315 314 315 314 313 314 313 311 312 312 312 312 312 312 311
Wind_Speed
13 14 13 12 11 12 13 13 14 15 13 8 4 2 2 2 9 8 5 2 5 9 7 4 3 5 7 5 8 7 2 2 5 8 5 14 6 5 10 19 4 8 9 9 27
14 15 14 13 12 11 12 13 13 15 15 9 5 3 1 3 10 12 6 4 7 8 6 2 2 5 5 3 3 4 3 8 6 6 6 18 16 12 8 11 5 7 8 24 28
15 15 16 14 13 12 11 12 13 14 15 11 6 3 2 1 7 10 9 5 6 8 5 4 4 5 2 3 3 6 4 5 2 10 15 13 13 7 22 2 14 24 27 30 29
15 15 15 14 13 12 12 12 13 14 14 12 6 5 4 3 4 2 6 9 8 9 5 3 2 3 2 3 4 1 2 4 1 5 18 16 16 9 18 9 20 21 21 30 31
14 14 14 13 14 13 13 13 12 13 14 13 7 5 4 5 5 2 0 10 10 10 8 5 6 1 2 4 3 4 2 2 4 14 16 20 10 9 15 6 14 24 30 30 30
13 13 13 14 14 14 14 13 13 13 13 14 8 6 4 4 5 4 3 5 9 11 11 8 6 9 7 4 2 2 4 8 8 8 16 11 4 7 8 12 24 30 33 30 30
13 14 14 14 15 15 15 14 13 12 11 12 9 8 8 13 7 7 5 7 4 8 12 9 6 7 5 3 5 15 4 2 4 10 6 9 1 5 12 22 31 34 33 31 30
12 14 14 14 15 16 16 15 14 12 10 10 8 8 8 3 15 12 8 8 9 9 6 3 6 7 3 1 4 2 5 2 3 10 6 12 8 7 21 30 29 31 31 30 32
13 13 13 14 15 14 14 14 12 11 9 8 6 6 8 7 12 15 12 12 10 12 10 3 7 4 2 4 4 6 3 4 4 11 4 5 7 9 28 28 27 30 32 31 31
12 13 13 13 14 13 12 11 5 4 6 5 6 3 9 2 6 8 11 12 10 12 9 9 4 3 3 3 5 5 4 3 5 6 5 6 8 2 30 27 27 31 32 32 32
13 13 13 13 9 11 10 1 2 3 5 6 5 5 2 2 4 7 6 12 9 13 5 2 3 5 10 8 6 6 5 5 7 6 7 10 8 7 23 23 21 26 32 34 33
12 12 12 10 4 7 9 8 9 6 11 12 21 21 20 12 5 7 8 8 5 5 4 5 5 8 1 5 5 6 6 6 6 0 7 3 13 4 18 31 36 34 31 37 33
11 11 10 7 2 3 7 9 5 4 5 11 16 21 23 10 6 8 8 6 3 4 4 6 6 1 4 5 3 1 3 4 6 3 1 4 5 4 8 20 22 23 32 35 36
11 11 9 2 3 1 1 4 6 5 5 6 4 9 17 8 6 16 10 8 2 8 5 5 6 6 4 4 4 4 4 3 5 3 3 4 4 4 4 5 16 24 32 37 38
10 11 8 5 4 3 1 3 5 2 4 4 4 4 10 14 3 9 19 11 7 5 6 7 2 3 3 3 3 5 3 2 2 2 3 1 3 6 0 6 7 21 35 39 38
11 11 8 8 6 6 4 4 1 6 6 6 3 4 5 7 3 1 8 10 5 4 2 6 2 2 5 2 1 3 3 5 4 3 1 6 5 5 3 3 2 9 23 34 36
12 11 10 7 6 5 5 1 5 5 5 5 3 2 5 5 4 2 3 5 6 4 4 2 3 2 2 2 4 4 5 3 3 3 6 4 3 6 5 2 4 9 7 11 20
12 11 10 8 8 5 5 4 3 5 5 6 4 3 7 5 5 5 4 5 2 4 3 6 6 6 3 7 7 5 7 5 5 3 4 1 3 3 5 10 15 13 10 7 10
11 10 7 7 4 4 6 2 7 6 2 6 8 2 3 3 4 5 7 7 9 8 7 5 5 1 3 3 8 4 3 3 5 2 2 1 2 3 3 4 9 15 17 14 10
8 6 4 5 2 5 3 4 4 4 4 4 1 4 3 4 5 6 8 5 5 12 8 6 1 2 2 4 4 5 5 3 3 2 3 2 2 4 9 8 6 8 18 17 14
5 2 3 4 3 3 4 6 5 8 2 2 3 4 2 3 3 4 6 5 7 6 11 6 4 4 2 4 8 2 1 4 4 4 5 1 5 5 11 9 8 11 14 14 14
2 1 5 4 2 2 3 4 4 3 3 2 3 6 1 5 4 3 5 8 15 16 9 8 6 5 7 3 3 4 6 6 5 4 2 4 5 6 5 15 17 16 14 12 11
2 1 3 6 2 2 4 3 3 4 2 3 2 3 4 2 4 4 3 6 7 7 11 7 1 2 5 6 3 4 4 5 5 3 6 5 6 5 11 14 19 23 18 15 12
2 1 3 5 2 2 1 3 3 6 6 8 6 7 1 2 4 6 5 4 8 2 4 12 5 8 11 8 5 4 4 4 6 3 4 6 5 4 5 9 17 19 20 19 16
3 1 1 1 1 0 1 2 1 3 3 6 3 7 6 4 3 4 4 7 3 10 1 5 6 5 6 6 6 7 6 8 7 6 7 6 9 9 15 14 23 24 21 21 19
2 2 2 2 2 1 1 1 2 3 3 3 3 10 7 5 7 3 1 2 2 7 6 4 3 3 5 5 7 5 7 8 5 3 4 3 6 5 13 17 21 27 25 23 22
3 3 2 2 1 1 1 3 3 8 4 5 6 4 5 3 15 17 9 10 5 2 3 4 4 3 4 2 2 4 8 7 5 5 7 6 10 7 5 20 30 32 29 26 26
Wind_Direction
330 333 331 333 340 348 353 360 5 1 358 350 341 342 34 171 184 204 216 151 153 156 154 171 213 249 283 258 207 183 84 201 222 154 218 166 149 124 153 138 147 194 188 196 167
316 320 323 320 324 329 340 347 355 357 354 350 330 309 14 204 218 230 182 140 157 169 175 222 226 279 296 276 226 150 138 211 197 191 192 174 157 139 126 136 93 154 172 161 166
306 307 310 309 312 314 322 333 343 349 349 347 321 295 263 185 240 245 214 176 167 178 199 283 317 318 298 290 233 173 195 209 211 212 175 147 146 137 135 213 182 166 161 165 174
308 306 305 302 305 307 305 315 327 337 341 338 320 300 258 224 185 178 204 201 193 198 227 279 283 306 283 295 277 114 81 184 204 151 157 152 150 138 168 192 203 187 183 174 181
325 319 310 300 298 302 304 301 306 319 329 332 311 302 272 240 233 274 252 185 192 207 231 250 327 287 335 314 37 96 145 184 148 151 157 156 165 180 196 195 191 177 178 182 184
331 329 321 308 297 297 301 303 299 297 310 323 301 291 254 258 229 216 234 189 209 220 241 258 296 304 298 261 169 151 120 146 147 144 155 156 158 172 204 207 172 178 183 188 189
330 328 326 319 305 295 294 300 304 293 286 309 291 281 254 237 189 162 203 238 261 238 249 273 285 309 315 320 134 130 100 55 173 167 167 166 55 242 198 185 177 184 188 193 194
332 328 326 324 315 300 295 298 304 289 265 292 278 272 256 245 236 231 247 221 228 234 247 287 261 284 237 56 42 77 71 122 267 169 197 162 233 211 183 177 179 186 193 196 199
330 333 329 326 321 313 299 302 306 281 256 270 254 245 263 222 221 230 244 240 268 243 225 207 186 194 148 89 10 354 221 186 283 208 127 185 249 209 182 182 184 191 197 197 201
326 330 336 333 328 320 316 311 315 255 254 241 228 248 254 218 217 226 239 241 265 226 209 208 171 96 55 101 244 240 250 247 235 213 173 198 248 185 180 187 196 196 200 199 202
325 328 338 341 337 329 339 268 195 218 228 230 257 242 204 6 238 211 195 206 181 177 166 34 94 201 220 203 213 217 198 203 256 213 148 205 223 181 191 200 205 203 200 203 207
324 327 337 344 323 341 2 72 60 324 305 247 252 250 243 288 302 222 194 179 164 178 113 27 230 239 198 242 261 227 210 241 282 306 176 147 243 158 193 209 207 202 198 206 206
321 324 337 343 219 339 44 72 53 327 258 284 244 240 241 234 233 242 200 186 149 173 162 171 239 317 209 247 199 15 173 219 227 115 235 120 293 198 224 222 215 211 208 209 207
315 321 333 36 206 257 127 36 342 335 35 276 234 237 220 205 246 230 217 194 154 188 174 223 264 231 258 215 142 192 209 253 115 89 203 140 259 302 266 241 211 195 204 211 213
309 309 325 328 268 206 109 7 353 35 18 269 213 192 195 177 172 212 224 217 173 178 116 236 262 190 178 212 171 211 172 242 119 134 55 247 107 257 166 275 214 186 201 213 218
304 305 304 301 294 241 248 357 68 47 259 313 208 164 109 194 208 113 179 198 209 163 74 211 253 219 202 154 180 125 104 45 41 83 66 242 153 282 257 252 135 187 204 215 221
293 294 293 281 285 256 242 307 50 133 312 304 326 193 166 182 219 155 142 154 161 139 230 356 244 273 187 114 18 81 66 337 340 3 217 158 105 243 333 17 148 131 153 209 223
291 288 283 278 275 257 169 62 111 234 242 298 337 310 184 163 209 185 160 194 249 101 114 177 291 175 193 190 188 184 159 162 216 209 260 267 204 269 19 73 108 108 109 133 187
294 288 276 253 270 196 174 162 202 214 279 343 327 245 264 237 169 150 195 207 198 169 173 167 257 224 183 178 141 205 189 192 112 17 49 230 25 353 67 67 101 102 106 105 117
303 289 244 210 177 163 94 237 242 224 27 355 310 45 306 274 169 165 183 207 216 190 161 206 238 206 154 120 44 151 159 62 4 134 223 309 243 231 204 196 165 119 108 107 110
294 295 184 173 156 154 164 229 266 273 355 22 354 340 304 356 282 215 218 246 208 210 175 141 127 283 129 189 177 107 129 62 120 130 166 185 262 222 218 183 156 144 131 128 128
242 47 168 171 143 107 178 197 310 313 85 290 252 224 259 345 308 282 231 222 221 163 168 200 147 184 205 281 221 167 178 144 127 220 186 153 263 346 229 154 149 138 137 136 138
223 250 187 176 155 243 283 290 282 312 29 299 266 72 53 308 312 274 280 308 3 172 164 181 205 79 354 348 351 191 184 117 108 86 189 142 256 16 116 127 156 144 148 141 135
180 42 187 195 182 172 210 272 263 290 260 249 259 309 290 271 217 284 312 302 345 289 191 146 146 170 203 215 152 179 188 147 135 129 179 213 228 235 186 158 165 158 149 144 143
173 167 98 251 351 101 193 308 274 326 313 333 285 225 203 250 276 264 299 320 320 354 26 138 172 175 215 184 168 194 180 166 181 189 171 233 204 209 197 184 176 166 157 149 146
139 127 119 72 317 244 209 236 255 306 234 305 40 322 326 245 214 245 349 29 3 325 355 336 182 159 204 201 192 196 206 187 206 141 270 209 250 236 168 162 167 171 167 161 158
149 128 143 8 64 115 79 342 33 354 285 300 14 316 328 329 321 299 293 293 265 337 309 351 132 102 245 225 205 305 214 184 183 198 157 192 222 135 161 178 185 178 174 172 170